Location: Unspecified
(47.4992°N, 121.7766°W)
Time: 06:12:21
(UTC-07:00)

Okean 3 - Pass Details

Date: 13 August 2024
Orbit: 557 x 580 km, 82.5° (Epoch: 15 September)

Event Time Altitude Azimuth Distance (km) Brightness Sun altitude
Rises 02:58:12 0° 342° (NNW) 2,755 7.5 -23.7°
Reaches altitude 10° 03:00:31 10° 333° (NNW) 1,854 6.4 -23.5°
Enters shadow 03:03:06 28° 301° (WNW) 1,057 4.7 -23.3°
